When you browse on this site, cookies collect data to enhance your experience and personalize the content and advertising you see.
Visit our Privacy Policy to learn more. By continuing to use the site, you agree to this use of cookies and data.
  • In Austria
  • List of Countries
  • For 7 days
  • Water Temperature
  • Satellite Maps
  • Weather Map
  • News
  • Weather Widgets
  • user-avatar
    Login

    Hourly Weather Buenos Aires

    Today, 16 January, Wednesday

    Time Temperature Precipitation Wind Pressure Humidity
    00:00 +24°C° 0 mm 2 mps 756 mmHg 77%
    01:00 +23°C° 0 mm 2 mps 756 mmHg 78%
    02:00 +23°C° 0 mm 2 mps 755 mmHg 82%
    03:00 +21°C° 0 mm 2 mps 755 mmHg 82%
    04:00 +21°C° 0 mm 2 mps 755 mmHg 82%
    05:00 +21°C° 0 mm 2 mps 755 mmHg 82%
    06:00 +23°C° 0 mm 2 mps 756 mmHg 75%
    07:00 +24°C° 0 mm 2 mps 756 mmHg 67%
    08:00 +26°C° 0 mm 2 mps 756 mmHg 64%
    09:00 +28°C° 0 mm 1 mps 756 mmHg 55%
    10:00 +30°C° 0 mm 1 mps 756 mmHg 45%
    11:00 +31°C° 0 mm 0 mps 756 mmHg 36%
    12:00 +34°C° 0 mm 1 mps 756 mmHg 32%
    13:00 +35°C° 0 mm 1 mps 756 mmHg 28%
    14:00 +36°C° 0 mm 1 mps 755 mmHg 25%
    15:00 +36°C° 0 mm 1 mps 755 mmHg 25%
    16:00 +35°C° 0 mm 1 mps 755 mmHg 26%
    17:00 +36°C° 0 mm 2 mps 755 mmHg 27%
    18:00 +34°C° 0 mm 2 mps 755 mmHg 30%
    19:00 +32°C° 0 mm 2 mps 756 mmHg 33%
    20:00 +31°C° 0 mm 3 mps 756 mmHg 36%
    21:00 +30°C° 0 mm 2 mps 757 mmHg 39%
    22:00 +29°C° 0 mm 2 mps 758 mmHg 41%
    23:00 +29°C° 0 mm 2 mps 758 mmHg 43%

    Tomorrow, 17 January, Thursday

    Time Temperature Precipitation Wind Pressure Humidity
    00:00 +27°C° 0 mm 4 mps 759 mmHg 48%
    01:00 +24°C° 0 mm 6 mps 759 mmHg 52%
    02:00 +23°C° 0 mm 8 mps 759 mmHg 57%
    03:00 +22°C° 0 mm 7 mps 760 mmHg 57%
    04:00 +22°C° 0 mm 7 mps 761 mmHg 58%
    05:00 +21°C° 0 mm 7 mps 761 mmHg 58%
    06:00 +21°C° 0 mm 7 mps 762 mmHg 59%
    07:00 +21°C° 0 mm 7 mps 762 mmHg 60%
    08:00 +21°C° 0 mm 7 mps 763 mmHg 61%
    09:00 +22°C° 0 mm 6 mps 763 mmHg 55%
    10:00 +24°C° 0 mm 6 mps 764 mmHg 49%
    11:00 +26°C° 0 mm 6 mps 764 mmHg 42%
    12:00 +27°C° 0 mm 6 mps 764 mmHg 40%
    13:00 +28°C° 0 mm 6 mps 763 mmHg 38%
    14:00 +28°C° 0 mm 6 mps 763 mmHg 36%
    15:00 +28°C° 0 mm 6 mps 763 mmHg 40%
    16:00 +27°C° 0 mm 7 mps 763 mmHg 44%
    17:00 +26°C° 0 mm 7 mps 763 mmHg 48%
    18:00 +24°C° 0 mm 7 mps 764 mmHg 51%
    19:00 +23°C° 0 mm 7 mps 764 mmHg 53%
    20:00 +22°C° 0 mm 8 mps 765 mmHg 56%
    21:00 +21°C° 0 mm 7 mps 765 mmHg 58%
    22:00 +21°C° 0 mm 7 mps 765 mmHg 59%
    23:00 +20°C° 0 mm 7 mps 766 mmHg 61%

    Day after tomorrow, 18 January, Friday

    Time Temperature Precipitation Wind Pressure Humidity
    00:00 +20°C° 0 mm 6 mps 766 mmHg 61%
    01:00 +20°C° 0 mm 6 mps 766 mmHg 62%
    02:00 +20°C° 0 mm 6 mps 765 mmHg 62%
    03:00 +20°C° 0 mm 5 mps 766 mmHg 62%
    04:00 +20°C° 0 mm 5 mps 766 mmHg 62%
    05:00 +20°C° 0 mm 5 mps 766 mmHg 61%
    06:00 +20°C° 0 mm 5 mps 766 mmHg 60%
    07:00 +20°C° 0 mm 4 mps 766 mmHg 60%
    08:00 +21°C° 0 mm 4 mps 766 mmHg 59%
    09:00 +22°C° 0 mm 4 mps 766 mmHg 56%
    10:00 +25°C° 0 mm 4 mps 766 mmHg 53%
    11:00 +26°C° 0 mm 4 mps 766 mmHg 50%
    12:00 +26°C° 0 mm 4 mps 765 mmHg 49%
    13:00 +27°C° 0 mm 5 mps 764 mmHg 47%
    14:00 +28°C° 0 mm 5 mps 764 mmHg 46%
    15:00 +27°C° 0 mm 5 mps 763 mmHg 47%
    16:00 +27°C° 0 mm 5 mps 763 mmHg 49%
    17:00 +27°C° 0 mm 6 mps 763 mmHg 50%
    18:00 +26°C° 0 mm 6 mps 763 mmHg 55%
    19:00 +24°C° 0 mm 6 mps 763 mmHg 60%
    20:00 +24°C° 0 mm 6 mps 764 mmHg 65%
    21:00 +23°C° 0 mm 6 mps 764 mmHg 66%
    22:00 +23°C° 0 mm 6 mps 764 mmHg 66%
    23:00 +23°C° 0 mm 6 mps 765 mmHg 67%

    19 January, Saturday

    Time Temperature Precipitation Wind Pressure Humidity
    00:00 +23°C° 0 mm 6 mps 765 mmHg 68%
    01:00 +22°C° 0 mm 6 mps 764 mmHg 68%
    02:00 +22°C° 0 mm 5 mps 764 mmHg 68%
    03:00 +22°C° 0 mm 5 mps 764 mmHg 69%
    04:00 +21°C° 0 mm 4 mps 764 mmHg 69%
    05:00 +21°C° 0 mm 4 mps 764 mmHg 69%
    06:00 +22°C° 0 mm 4 mps 765 mmHg 66%
    07:00 +23°C° 0 mm 4 mps 765 mmHg 63%
    08:00 +23°C° 0 mm 4 mps 765 mmHg 60%
    09:00 +25°C° 0 mm 4 mps 765 mmHg 55%
    10:00 +26°C° 0 mm 4 mps 765 mmHg 50%
    11:00 +27°C° 0 mm 4 mps 764 mmHg 45%
    12:00 +28°C° 0 mm 4 mps 764 mmHg 43%
    13:00 +28°C° 0 mm 4 mps 763 mmHg 41%
    14:00 +29°C° 0 mm 4 mps 763 mmHg 39%
    15:00 +29°C° 0 mm 5 mps 762 mmHg 41%
    16:00 +29°C° 0 mm 5 mps 762 mmHg 43%
    17:00 +28°C° 0 mm 5 mps 761 mmHg 44%
    18:00 +27°C° 0 mm 6 mps 762 mmHg 50%
    19:00 +26°C° 0 mm 6 mps 762 mmHg 56%
    20:00 +24°C° 0 mm 6 mps 762 mmHg 63%
    21:00 +24°C° 0 mm 6 mps 762 mmHg 62%
    22:00 +24°C° 0 mm 6 mps 763 mmHg 62%
    23:00 +24°C° 0 mm 6 mps 763 mmHg 62%

    20 January, Sunday

    Time Temperature Precipitation Wind Pressure Humidity
    00:00 +24°C° 0 mm 6 mps 763 mmHg 64%
    01:00 +23°C° 0 mm 6 mps 763 mmHg 67%
    02:00 +23°C° 0 mm 5 mps 763 mmHg 70%
    03:00 +22°C° 0 mm 5 mps 763 mmHg 70%
    04:00 +22°C° 0 mm 4 mps 763 mmHg 70%
    05:00 +22°C° 0 mm 4 mps 763 mmHg 70%
    06:00 +22°C° 0 mm 4 mps 763 mmHg 67%
    07:00 +23°C° 0 mm 4 mps 763 mmHg 64%
    08:00 +25°C° 0 mm 4 mps 763 mmHg 61%
    09:00 +26°C° 0 mm 4 mps 762 mmHg 55%
    10:00 +27°C° 0 mm 4 mps 762 mmHg 50%
    11:00 +28°C° 0 mm 4 mps 761 mmHg 45%
    12:00 +29°C° 0 mm 3 mps 761 mmHg 44%
    13:00 +30°C° 0 mm 3 mps 760 mmHg 42%
    14:00 +31°C° 0 mm 3 mps 759 mmHg 41%
    15:00 +32°C° 0 mm 4 mps 758 mmHg 43%
    16:00 +30°C° 0 mm 4 mps 758 mmHg 45%
    17:00 +30°C° 0 mm 4 mps 758 mmHg 47%
    18:00 +29°C° 0 mm 4 mps 758 mmHg 52%
    19:00 +28°C° 0 mm 5 mps 758 mmHg 57%
    20:00 +28°C° 0 mm 5 mps 758 mmHg 62%
    21:00 +27°C° 0 mm 5 mps 758 mmHg 66%
    22:00 +27°C° 0 mm 5 mps 758 mmHg 69%
    23:00 +26°C° 0 mm 5 mps 758 mmHg 72%

    21 January, Monday

    Time Temperature Precipitation Wind Pressure Humidity
    00:00 +26°C° 0 mm 5 mps 758 mmHg 74%
    01:00 +25°C° 0 mm 5 mps 758 mmHg 76%
    02:00 +25°C° 0 mm 5 mps 757 mmHg 78%
    03:00 +25°C° 0 mm 4 mps 757 mmHg 79%
    04:00 +23°C° 0 mm 4 mps 757 mmHg 80%
    05:00 +24°C° 0 mm 3 mps 757 mmHg 82%
    06:00 +25°C° 0 mm 3 mps 757 mmHg 78%
    07:00 +26°C° 0 mm 2 mps 757 mmHg 74%
    08:00 +27°C° 0 mm 2 mps 757 mmHg 71%
    09:00 +29°C° 0 mm 2 mps 757 mmHg 62%
    10:00 +31°C° 0 mm 1 mps 757 mmHg 54%
    11:00 +34°C° 0 mm 1 mps 757 mmHg 45%
    12:00 +34°C° 0 mm 1 mps 756 mmHg 43%
    13:00 +36°C° 0 mm 2 mps 756 mmHg 40%
    14:00 +37°C° 0 mm 2 mps 755 mmHg 37%
    15:00 +36°C° 0 mm 2 mps 755 mmHg 38%
    16:00 +36°C° 0 mm 3 mps 755 mmHg 39%
    17:00 +35°C° 0 mm 3 mps 754 mmHg 40%
    18:00 +34°C° 0 mm 3 mps 755 mmHg 44%
    19:00 +33°C° 0 mm 3 mps 755 mmHg 49%
    20:00 +31°C° 0 mm 3 mps 755 mmHg 53%
    21:00 +30°C° 0 mm 3 mps 755 mmHg 55%
    22:00 +30°C° 0 mm 3 mps 756 mmHg 57%
    23:00 +29°C° 0 mm 3 mps 756 mmHg 59%
    Show more